Theta_e
358 351 352 352 351 351 348 351 357 356 354 357 355 350 356 357 354 357 356 358 358 358
354 354 353 357 355 353 354 353 355 355 354 354 355 351 354 356 355 356 357 357 358 356
352 353 354 355 354 356 355 356 356 355 354 353 353 354 353 354 357 357 355 355 357 358
351 352 353 352 354 356 357 357 356 356 355 355 354 350 351 349 349 357 359 360 359 359
351 352 351 352 353 356 356 358 357 357 356 356 354 353 353 348 346 348 357 359 359 358
349 351 351 352 354 355 356 357 357 358 357 358 358 353 352 351 346 347 357 360 358 358
350 352 352 354 356 356 359 359 359 359 359 359 359 357 357 349 349 350 357 361 360 358
354 356 355 356 357 357 359 359 361 360 358 358 357 355 355 353 349 353 357 360 358 358
353 354 354 354 351 351 353 353 354 355 357 357 356 345 344 353 353 351 355 357 358 359
350 354 353 351 348 346 345 344 343 344 345 345 352 338 339 344 354 356 357 359 357 356
351 350 352 349 345 345 344 344 343 342 342 343 345 336 335 340 351 356 359 359 358 358
347 348 350 348 348 347 344 343 343 343 343 343 344 332 330 337 349 349 354 358 360 359
345 345 346 347 346 347 345 341 339 340 342 336 342 331 327 333 347 346 347 350 351 337
341 343 345 346 347 346 343 341 338 339 342 344 343 343 324 325 340 343 344 344 343 346
Wind_Speed
15 12 10 12 10 8 8 9 8 9 7 9 6 6 9 8 10 10 9 11 8 6
14 15 13 13 11 9 9 7 8 9 11 9 8 9 7 8 11 10 11 10 9 8
14 15 14 12 13 12 11 10 9 10 10 10 8 8 8 9 10 11 10 10 11 10
14 15 14 14 14 14 12 11 11 11 11 12 11 10 11 7 3 10 12 12 12 12
13 13 14 15 15 12 13 11 11 11 12 13 12 13 13 12 9 13 14 14 13 13
13 14 15 13 12 12 11 11 11 11 12 13 12 10 12 11 12 16 17 14 15 14
11 11 11 12 13 13 12 12 12 13 13 14 13 14 14 11 8 14 15 15 15 15
7 8 9 10 11 12 13 14 15 15 14 14 13 11 16 16 15 17 16 16 16 16
7 8 11 12 13 12 12 13 13 13 14 14 11 16 19 17 16 16 16 15 16 16
7 9 10 10 10 12 10 6 7 7 7 9 9 5 13 21 14 14 15 14 14 13
5 6 8 10 12 12 10 11 10 9 9 9 9 10 13 15 12 13 13 14 15 15
12 11 9 9 10 9 8 10 11 11 12 12 12 11 10 10 7 10 12 11 13 14
11 11 11 11 12 10 9 10 9 11 10 10 13 11 11 11 5 7 6 10 10 11
8 11 13 13 11 11 11 10 10 9 8 11 10 8 8 12 5 6 6 8 9 8
Wind_Direction
211 219 223 223 226 217 227 227 217 214 223 220 180 166 234 211 215 217 226 228 217 223
215 216 218 220 216 215 222 222 210 208 217 212 189 175 219 215 214 216 222 226 222 231
222 220 223 217 219 216 218 209 199 210 216 217 194 189 211 224 213 218 224 230 217 227
215 217 214 220 219 215 213 213 211 209 211 207 195 179 219 217 274 256 232 230 224 219
216 219 217 224 218 218 216 204 208 211 219 218 193 183 209 190 186 245 243 232 231 224
220 213 218 220 219 211 214 213 216 213 220 226 218 191 186 200 193 219 244 226 227 228
231 227 225 218 207 211 206 202 204 214 221 227 222 206 202 189 194 237 235 229 228 230
243 230 222 208 205 200 204 209 200 199 210 215 223 221 197 187 190 223 234 223 226 228
235 219 211 204 199 195 192 192 194 194 197 204 211 210 195 195 196 207 226 223 219 226
262 241 232 219 206 209 210 229 237 259 248 243 257 248 219 198 217 220 209 220 221 220
327 282 256 225 225 231 237 250 258 252 244 234 229 201 229 216 208 219 229 219 218 215
322 318 310 286 269 258 252 259 257 256 250 243 237 215 208 214 198 211 227 233 224 219
303 298 297 292 292 294 287 287 288 277 267 264 263 226 195 182 183 224 219 232 235 234
304 294 289 289 285 286 288 290 285 272 259 264 256 264 176 181 185 217 219 224 226 223